Regional Weather Roundup
Issued by NWS

Home | Current Version | Previous Version | Text Only | Print | Product List | Glossary Off
Versions: 1 2 3 4 5 6 7 8 9 10 11 12 13 14 15 16 17 18 19 20 21 22 23 24 25 26 27 28 29 30 31 32 33 34 35 36 37 38 39 40 41 42 43 44 45 46 47 48 49 50

000
ASUS43 KMKX 202020
RWRWI

WISCONSIN REGIONAL WEATHER ROUNDUP
NATIONAL WEATHER SERVICE MILWAUKEE/SULLIVAN WI
300 PM CDT FRI APR 20 2018

NOTE: "FAIR" INDICATES FEW OR NO CLOUDS BELOW 12,000 FEET WITH NO
SIGNIFICANT WEATHER AND/OR OBSTRUCTIONS TO VISIBILITY.

WIZ001-002-006>008-014>016-023>028-202100-
NORTHWEST WISCONSIN

CITY           SKY/WX    TMP DP  RH WIND       PRES   REMARKS
SUPERIOR ARPT  FAIR      59  25  27 W8        30.41S
ASHLAND        FAIR      56  15  20 W7        30.42F
HAYWARD        FAIR      54  18  24 CALM      30.42F
SIREN          FAIR      53  20  27 SW5       30.45S
CUMBERLAND     FAIR      46  18  31 S6        30.45S
RICE LAKE      FAIR      51  18  27 SW5       30.47S
CHETEK         FAIR      52  19  28 CALM      30.45S
LADYSMITH      FAIR      54  21  27 S5        30.45F
EAU CLAIRE     FAIR      53  18  25 SW9       30.45F
MENOMONIE      FAIR      55  24  30 SE5       30.45F
NEW RICHMOND   FAIR      51  20  29 CALM      30.46F
OSCEOLA        FAIR      53  24  32 SE7       30.48F
$$

WIZ003>005-009-010-017-018-202100-
NORTH CENTRAL WISCONSIN

CITY           SKY/WX    TMP DP  RH WIND       PRES   REMARKS
MANITOWISH WTR FAIR      53  13  20 W8        30.40F
ARBOR VITAE    FAIR      55  10  16 W3        30.41F
WOODRUFF       FAIR      55  10  16 W3        30.41F
RHINELANDER    FAIR      53  13  20 W6        30.42F
EAGLE RIVER    FAIR      52  10  19 W9        30.40F
LAND O LAKES   FAIR      56   6  13 CALM      30.42S
PHILLIPS       FAIR      53  13  20 S7        30.41F
TOMAHAWK       FAIR      54   6  14 W8        30.42F
MEDFORD        FAIR      47  19  31 S6        30.44F
MERRILL          N/A     53  12  19 SW12      30.44F
$$

WIZ029-030-035-036-043>047-202100-
CENTRAL WISCONSIN

CITY           SKY/WX    TMP DP  RH WIND       PRES   REMARKS
WAUSAU         FAIR      51  16  24 W10       30.44S
MOSINEE        PTSUNNY   52  16  24 W5        30.46F
MARSHFIELD     FAIR      52  15  23 N3        30.44F
STEVENS POINT  FAIR      52  13  21 SW5       30.46F
WAUPACA        FAIR      58  10  15 SE6       30.46S
WAUTOMA        FAIR      54  13  19 E3          N/A
WISC RAPIDS    FAIR      53  11  18 VRB6      30.46F
CAMP DOUGLAS   MOSUNNY   54  14  20 S7        30.45F
$$

WIZ011>013-019>022-031-037>040-048>050-202100-
NORTHEAST WISCONSIN

CITY           SKY/WX    TMP DP  RH WIND       PRES   REMARKS
ANTIGO         FAIR      48  19  31 SW6       30.44S
SHAWANO        FAIR      58  10  15 SW8       30.43F
OCONTO         FAIR      51  14  22 S9        30.46S
STURGEON BAY   FAIR      51  15  23 S7        30.47F
GREEN BAY      FAIR      49  20  31 S8        30.48F
MANITOWOC      FAIR      48  20  32 S7        30.49F
APPLETON       PTSUNNY   52  18  25 SW6       30.46F
CLINTONVILLE   FAIR      54  11  17 S8        30.45F
OSHKOSH        FAIR      48  23  37 S7        30.48S
$$

WIZ032>034-041-042-053>061-202100-
SOUTHWEST WISCONSIN

CITY           SKY/WX    TMP DP  RH WIND       PRES   REMARKS
LA CROSSE      FAIR      56  16  20 SW12      30.46F
SPARTA         FAIR      53  14  21 S7        30.47F
VIROQUA        FAIR      50  21  32 SW3       30.46F
BOSCOBEL       FAIR      58  24  27 VRB5      30.46F
PRAIRIE DU CHI FAIR      56  26  31 SW7       30.46F
PLATTEVILLE    FAIR      56  30  36 S5        30.46F
$$

WIZ056-057-062-063-064-067-068-202100-
SOUTH CENTRAL WISCONSIN

CITY           SKY/WX    TMP DP  RH WIND       PRES   REMARKS
REEDSBURG      FAIR      52  19  26 S3        30.47F
BARABOO/DELLS  FAIR      55  13  18 CALM      30.47F
LONE ROCK      FAIR      58  22  24 N5        30.46F
MINERAL POINT  FAIR      57  21  24 SW7       30.45F
MADISON        FAIR      56  21  25 W6        30.47F
MIDDLETON      FAIR      58  16  19 CALM      30.47F
WATERTOWN      FAIR      52  20  28 CALM      30.48F
MONROE         FAIR      55  18  22 S7        30.45F
JANESVILLE     MOSUNNY   61   9  12 VRB3      30.46F
$$

WIZ051-052-058>065-066-070>072-202100-
SOUTHEAST WISCONSIN

CITY           SKY/WX    TMP DP  RH WIND       PRES   REMARKS
MILWAUKEE      PTSUNNY   52  29  41 E7        30.49F
WAUKESHA       SUNNY     52  16  24 CALM      30.49F
MILWAUKEE/TIMM SUNNY     55  18  22 S5        30.48F
RACINE         FAIR      53  23  31 SE8       30.50F
BURLINGTON     FAIR      55  15  20 W6        30.49R
KENOSHA        FAIR      57  30  35 E8        30.48F
FOND DU LAC    FAIR      47  23  38 S8        30.48S
SHEBOYGAN      FAIR      51  27  39 SE7       30.48F
WEST BEND      FAIR      54  21  28 SW6       30.48S
JUNEAU         FAIR      48  22  35 CALM      30.49F
$$

LSZ147-162-202100-
LAKE SUPERIOR

STATION/POSITION TIME  TEMP    WIND        PRES    WAVE
                       AIR SEA DIR/SP/G            HT/PER
                 (UTC) (F)     (DEG/KT/KT) (MB)    (FT/S)
DEVILS ISLAND    2000   51     150/  5/  7 1030.2F
SAXON HARBOR     1930   44      40/  2/  5 1029.8F
$$

LMZ867-665-643>646-202100-
LAKE MICHIGAN

STATION/POSITION TIME  TEMP    WIND        PRES    WAVE
                       AIR SEA DIR/SP/G            HT/PER
                 (UTC) (F)     (DEG/KT/KT) (MB)    (FT/S)
NORTHPORT PIER   1940   51                 1030.8F
KEWAUNEE LAKESHO 1954   40     180/ 11/ 12 1031.2F
SHEBOYGAN LAKESH 2000   40     170/ 11/ 12 1032.7F
PORT WASHINGTON  1940   43     120/  3/  7 1033.2F
MILWAUKEE LAKESH 2000   42      80/  1/  2   N/A
KENOSHA   LAKESH 2000   43                 1032.2
$$

TC  - TEMPERATURE IN CELSIUS
VSB - VISIBILITY IN STATUTE MILES
WCI - WIND CHILL INDEX
HX  - HEAT INDEX





USA.gov is the U.S. government's official web portal to all federal, state and local government web resources and services.